This demonstration page uses our WeatherBlox Daily Observations layout. Learn more.

Hourly Observations for May 5, 2015

Temp ( °F °C ) Dew Point ( °F °C ) Humidity (%) Winds ( mph kmh ) Pressure ( in mb ) Visibility ( mi km ) Precip ( " mm )
12:15 am 00:15 Cloudy with Fog 54 12.1 53 11.5 96 96 ENE 7 11 30.09 1019 0.5 0.80467 0 0
12:35 am 00:35 Cloudy with Fog 54 12.1 53 11.5 96 96 NE 6 9 30.09 1019 0.5 0.80467 0 0
12:55 am 00:55 Cloudy with Rain 54 12 53 11.5 97 97 NE 7 11 30.09 1019 0.5 0.80467 0.02 0.508
1:15 am 01:15 Cloudy with Rain 54 12 53 11.5 97 97 NE 8 13 30.06 1018 1 1.60934 0.03 0.762
1:35 am 01:35 Cloudy with Light Rain 54 12 53 11.5 97 97 ENE 9 15 30.06 1018 1.75 2.816345 0.04 1.016
1:55 am 01:55 Cloudy with Light Rain 54 12.1 53 11.5 96 96 E 9 15 30.06 1018 1 1.60934 0.08 2.032
2:15 am 02:15 Cloudy with Light Drizzle 54 12.1 53 11.5 96 96 E 8 13 30.06 1018 1.25 2.011675 0.01 0.254
2:35 am 02:35 Cloudy with Light Rain 54 12.2 53 11.6 96 96 E 3 6 30.06 1018 3 4.82802 0.01 0.254
2:55 am 02:55 Cloudy with Light Drizzle 54 12.2 53 11.7 97 97 E 6 9 30.06 1018 2.5 4.02335 0.01 0.254
3:15 am 03:15 Cloudy with Mist and Fog 54 12.3 53 11.8 97 97 E 5 7 30.06 1018 2 3.21868 0 0
3:35 am 03:35 Cloudy with Mist and Fog 55 12.5 54 12 97 97 E 3 6 30.06 1018 1.25 2.011675 0 0
3:55 am 03:55 Cloudy with Mist and Fog 55 12.5 54 12 97 97 ENE 3 6 30 1016 0.75 1.207005 0 0
4:15 am 04:15 Cloudy with Fog 55 12.5 54 12 97 97 Calm 30 1016 0.5 0.80467 0 0
4:35 am 04:35 Cloudy with Fog 55 12.6 54 12.1 97 97 Calm 30 1016 0.25 0.402335 0 0
4:55 am 04:55 Cloudy with Fog 55 12.6 54 12.1 97 97 Calm 30 1016 0.25 0.402335 0 0
5:15 am 05:15 Cloudy with Fog 55 12.7 54 12.2 97 97 Calm 30 1016 0.25 0.402335 0 0
5:35 am 05:35 Cloudy with Fog 55 12.7 54 12.2 97 97 Calm 29.97 1015 0.25 0.402335 0 0
5:55 am 05:55 Cloudy with Fog 55 12.8 54 12.3 97 97 Calm 29.97 1015 0.25 0.402335 0 0
6:15 am 06:15 Cloudy with Fog 55 13 55 12.5 97 97 Calm 29.97 1015 0.25 0.402335 0 0
6:35 am 06:35 Cloudy with Fog 55 13 55 12.5 97 97 ESE 7 11 30 1016 0.5 0.80467 0 0
6:55 am 06:55 Cloudy with Fog 56 13.1 55 12.6 97 97 ESE 3 6 30 1016 0.5 0.80467 0 0
7:15 am 07:15 Cloudy with Fog 56 13.3 55 12.8 97 97 Calm 30 1016 0.25 0.402335 0 0
7:35 am 07:35 Cloudy with Fog 56 13.6 56 13.1 97 97 Calm 30 1016 0.25 0.402335 0 0
7:55 am 07:55 Cloudy with Mist and Fog 57 13.9 56 13.4 97 97 Calm 30 1016 1.5 2.41401 0 0
8:15 am 08:15 Cloudy with Mist and Fog 57 14 56 13.5 97 97 Calm 30 1016 2 3.21868 0 0
8:35 am 08:35 Cloudy with Mist and Fog 57 14.1 56 13.6 97 97 Calm 30 1016 2 3.21868 0 0
8:55 am 08:55 Cloudy with Mist and Fog 58 14.3 57 13.8 97 97 Calm 30 1016 3 4.82802 0 0
9:15 am 09:15 Cloudy with Mist and Fog 58 14.6 57 14 96 96 NE 3 6 30 1016 3 4.82802 0 0
9:35 am 09:35 Cloudy with Mist and Fog 58 14.6 57 14.1 97 97 ENE 3 6 30 1016 4 6.43736 0 0
9:55 am 09:55 Cloudy with Mist and Fog 59 14.8 58 14.2 96 96 E 7 11 30 1016 4 6.43736 0 0
10:15 am 10:15 Cloudy with Mist and Fog 59 15.1 58 14.5 96 96 E 9 15 30 1016 5 8.0467 0 0
10:35 am 10:35 Cloudy 60 15.6 59 15 96 96 E 8 13 30 1016 7 11.26538 0 0
10:55 am 10:55 Cloudy 61 16.1 59 15.2 94 94 E 12 19 30 1016 10 16.0934 0 0
11:15 am 11:15 Cloudy 62 16.8 59 15.1 90 90 ESE 10 17 29.94 1014 10 16.0934 0 0
11:35 am 11:35 Cloudy 63 17 59 15 88 88 ESE 10 17 29.94 1014 10 16.0934 0 0
11:55 am 11:55 Cloudy 63 17.2 59 15.1 88 88 SE 7 11 29.94 1014 7 11.26538 0 0
12:15 pm 12:15 Cloudy 65 18.3 59 15.2 82 82 SE 10 17 29.94 1014 10 16.0934 0 0
12:35 pm 12:35 Cloudy 66 19.1 59 15 77 77 SE 14 22 29.94 1014 10 16.0934 0 0
12:55 pm 12:55 Mostly Cloudy 68 20.1 58 14.5 70 70 SE 14 22 29.91 1013 10 16.0934 0 0
1:15 pm 13:15 Mostly Cloudy 69 20.7 58 14.4 67 67 SE 15 24 29.88 1012 10 16.0934 0 0
1:35 pm 13:35 Mostly Cloudy with Thunderstorms 70 21.3 56 13.3 60 60 SSE 17 28 29.88 1012 N/A 0.03 0.762
1:55 pm 13:55 Partly Cloudy 73 22.6 58 14.5 60 60 SSE 17 28 29.85 1011 10 16.0934 0.03 0.762
2:15 pm 14:15 Partly Cloudy 74 23.6 54 12.1 49 49 SSE 23 37 29.85 1011 10 16.0934 0 0
2:35 pm 14:35 Partly Cloudy 72 22.3 53 11.9 52 52 SSE 23 37 29.85 1011 10 16.0934 0 0
2:55 pm 14:55 Partly Cloudy 72 22.3 53 11.8 52 52 SSE 20 31 29.85 1011 10 16.0934 0 0
3:15 pm 15:15 Mostly Cloudy 71 21.7 52 11.3 52 52 SSE 20 31 29.85 1011 10 16.0934 0 0
3:35 pm 15:35 Cloudy 71 21.7 51 10.6 49 49 SSE 24 39 29.85 1011 10 16.0934 0 0
3:55 pm 15:55 Partly Cloudy 72 22.2 51 10.6 48 48 SSE 22 35 29.83 1010 10 16.0934 0 0
4:15 pm 16:15 Partly Cloudy 71 21.5 51 10.5 50 50 SSE 20 31 29.83 1010 10 16.0934 0 0
4:35 pm 16:35 Partly Cloudy 71 21.4 51 10.5 50 50 SSE 21 33 29.83 1010 10 16.0934 0 0
4:55 pm 16:55 Sunny 70 21.1 49 9.5 48 48 SSE 18 30 29.83 1010 10 16.0934 0 0
5:15 pm 17:15 Partly Cloudy 70 21 49 9.6 48 48 SSE 18 30 29.83 1010 10 16.0934 0 0
5:35 pm 17:35 Partly Cloudy 69 20.8 50 10.1 51 51 SSE 15 24 29.83 1010 10 16.0934 0 0
5:55 pm 17:55 Cloudy 69 20.3 51 10.6 54 54 SE 18 30 29.83 1010 10 16.0934 0 0
6:15 pm 18:15 Cloudy with Rain 65 18.5 53 11.6 64 64 S 16 26 29.83 1010 10 16.0934 0 0
6:35 pm 18:35 Cloudy with Light Rain 61 16.3 54 12.1 76 76 S 15 24 29.85 1011 7 11.26538 0 0
6:55 pm 18:55 Cloudy with Light Drizzle 61 16.2 55 12.8 80 80 S 21 33 29.85 1011 10 16.0934 0 0
7:15 pm 19:15 Cloudy with Light Rain 61 16 54 12.1 78 78 SSE 17 28 29.85 1011 10 16.0934 0 0
7:35 pm 19:35 Cloudy with Light Drizzle 60 15.8 54 12 78 78 SE 13 20 29.85 1011 10 16.0934 0 0
7:55 pm 19:55 Cloudy with Drizzle 60 15.5 53 11.5 77 77 SE 13 20 29.85 1011 10 16.0934 0.01 0.254
8:15 pm 20:15 Cloudy with Light Rain 59 15 54 12 82 82 SSE 13 20 29.88 1012 10 16.0934 0 0
8:35 pm 20:35 Cloudy with Drizzle 58 14.7 55 12.5 87 87 SSE 13 20 29.88 1012 10 16.0934 0.01 0.254
8:55 pm 20:55 Cloudy with Drizzle 58 14.3 55 12.6 90 90 SSE 15 24 29.88 1012 7 11.26538 0.01 0.254
9:15 pm 21:15 Cloudy with Drizzle 57 14.1 55 12.7 91 91 SE 18 30 29.88 1012 7 11.26538 0.01 0.254
9:35 pm 21:35 Cloudy with Light Rain 56 13.6 54 12.3 92 92 ESE 20 31 29.88 1012 3 4.82802 0.02 0.508
9:55 pm 21:55 Cloudy with Light Rain 56 13.5 55 12.5 94 94 ESE 14 22 29.88 1012 7 11.26538 0.03 0.762
10:15 pm 22:15 Cloudy 57 14 55 13 94 94 ESE 16 26 29.85 1011 7 11.26538 0 0
10:35 pm 22:35 Cloudy with Light Rain 57 14 56 13.1 94 94 ESE 16 26 29.85 1011 7 11.26538 0 0
10:55 pm 22:55 Cloudy 58 14.2 56 13.2 94 94 SE 18 30 29.85 1011 7 11.26538 0 0
11:15 pm 23:15 Cloudy 58 14.5 56 13.3 93 93 SE 18 30 29.83 1010 10 16.0934 0 0
11:35 pm 23:35 Cloudy 58 14.6 56 13.5 93 93 SE 15 24 29.83 1010 7 11.26538 0 0
11:55 pm 23:55 Cloudy with Light Rain 58 14.7 56 13.5 93 93 SE 20 31 29.8 1009 5 8.0467 0.01 0.254

Powered by AerisWeather